Location: Newark
(47.5833°N, 8.1500°E)
Time: 14:29:53
(UTC+00:00)

SR - Visible Passes

Search period start: 31 October 2020 00:00
Search period end: 10 November 2020 00:00
Orbit: 581 x 874 km, 66.7° (Epoch: 30 October)

Date Brightness Start Highest point End Pass type
(mag) Time Alt. Az. Time Alt. Az. Time Alt. Az.
31 Oct ? 03:34:02 11° N 03:34:02 11° N 03:34:20 10° N visible
06 Nov ? 05:24:46 10° N 05:26:38 12° NNE 05:28:32 10° NE visible
08 Nov ? 05:26:37 10° N 05:29:46 17° NNE 05:33:03 10° ENE visible
09 Nov ? 04:37:38 10° N 04:39:24 12° NNE 04:41:13 10° NE visible
